N68JL KHPN-KROA

Flight info

Callsign N68JL
Flight time N/A
Altitude 22000
Route LANNA J48 MOL
Aircraft BE20/L-VGD/C

Departure

Time 2026-04-22 18:33
Airport Westchester County Airport (KHPN)

Arrival

Time N/A
Airport Roanoke–Blacksburg Regional Airport (KROA)
Time Latitude Longitude Altitude Speed Heading
2026-04-22 18:21 41.06689 -73.70322 443 ft 0 kts 326°
2026-04-22 18:27 41.06690 -73.70322 443 ft 0 kts 326°
2026-04-22 18:28 41.06694 -73.70327 443 ft 2 kts 311°
2026-04-22 18:28 41.06692 -73.70365 443 ft 9 kts 247°
2026-04-22 18:28 41.06690 -73.70469 443 ft 15 kts 331°
2026-04-22 18:29 41.06779 -73.70535 443 ft 15 kts 329°
2026-04-22 18:29 41.06873 -73.70609 443 ft 17 kts 329°
2026-04-22 18:29 41.06979 -73.70690 443 ft 19 kts 330°
2026-04-22 18:29 41.07111 -73.70787 443 ft 24 kts 329°
2026-04-22 18:30 41.07262 -73.70908 443 ft 26 kts 328°
2026-04-22 18:30 41.07531 -73.71110 443 ft 19 kts 323°
2026-04-22 18:30 41.07566 -73.71225 443 ft 8 kts 268°
2026-04-22 18:31 41.07539 -73.71301 443 ft 7 kts 222°
2026-04-22 18:31 41.07523 -73.71301 443 ft 0 kts 153°
2026-04-22 18:32 41.07523 -73.71300 443 ft 0 kts 153°
2026-04-22 18:32 41.07522 -73.71300 443 ft 0 kts 153°
2026-04-22 18:32 41.07384 -73.71198 443 ft 60 kts 149°
2026-04-22 18:33 41.06829 -73.70773 490 ft 116 kts 149°
2026-04-22 18:33 41.06102 -73.70187 918 ft 128 kts 147°
2026-04-22 18:33 41.05203 -73.69604 1312 ft 153 kts 170°
2026-04-22 18:33 41.04137 -73.69862 1844 ft 167 kts 204°
2026-04-22 18:34 41.03229 -73.70887 2218 ft 177 kts 229°
2026-04-22 18:34 41.02779 -73.72431 2500 ft 186 kts 261°
2026-04-22 18:34 41.03056 -73.74115 2697 ft 199 kts 292°
2026-04-22 18:34 41.03892 -73.75639 2709 ft 208 kts 308°
2026-04-22 18:35 41.04829 -73.77093 2777 ft 207 kts 306°
2026-04-22 18:35 41.05740 -73.78545 2852 ft 207 kts 306°
2026-04-22 18:35 41.06655 -73.80017 2926 ft 206 kts 305°
2026-04-22 18:35 41.07304 -73.81667 2989 ft 200 kts 280°
2026-04-22 18:36 41.07501 -73.83483 3009 ft 200 kts 270°
2026-04-22 18:36 41.07554 -73.85334 3003 ft 201 kts 267°
2026-04-22 18:36 41.07575 -73.87162 3001 ft 199 kts 266°
2026-04-22 18:36 41.07588 -73.88988 3000 ft 197 kts 265°
2026-04-22 18:37 41.07269 -73.90673 3133 ft 182 kts 239°
2026-04-22 18:37 41.06568 -73.92021 3308 ft 175 kts 229°
2026-04-22 18:37 41.05802 -73.93279 3554 ft 178 kts 229°
2026-04-22 18:37 41.05040 -73.94596 3900 ft 179 kts 231°
2026-04-22 18:38 41.04323 -73.95948 4280 ft 181 kts 233°
2026-04-22 18:38 41.03633 -73.97339 4771 ft 178 kts 234°
2026-04-22 18:38 41.02989 -73.98684 5313 ft 173 kts 238°
2026-04-22 18:39 41.01714 -74.01439 6115 ft 181 kts 242°
2026-04-22 18:39 41.01065 -74.02877 6564 ft 181 kts 242°
2026-04-22 18:39 41.00425 -74.04309 7064 ft 180 kts 242°
2026-04-22 18:39 40.99795 -74.05722 7558 ft 181 kts 242°
2026-04-22 18:40 40.99146 -74.07169 8023 ft 185 kts 244°
2026-04-22 18:40 40.98492 -74.08642 8512 ft 185 kts 244°
2026-04-22 18:40 40.97841 -74.10114 9023 ft 186 kts 244°
2026-04-22 18:40 40.97181 -74.11603 9476 ft 189 kts 244°
2026-04-22 18:41 40.96505 -74.13111 9940 ft 190 kts 244°
2026-04-22 18:41 40.95837 -74.14606 10414 ft 191 kts 244°
2026-04-22 18:41 40.95157 -74.16123 10934 ft 189 kts 245°
2026-04-22 18:41 40.94486 -74.17623 11409 ft 191 kts 245°
2026-04-22 18:42 40.93805 -74.19149 11862 ft 193 kts 244°
2026-04-22 18:42 40.93131 -74.20667 12311 ft 194 kts 245°
2026-04-22 18:42 40.92443 -74.22218 12764 ft 196 kts 245°
2026-04-22 18:42 40.91747 -74.23786 13217 ft 197 kts 245°
2026-04-22 18:43 40.91046 -74.25355 13669 ft 198 kts 245°
2026-04-22 18:43 40.90350 -74.26913 14115 ft 200 kts 244°
2026-04-22 18:43 40.89640 -74.28499 14571 ft 201 kts 245°
2026-04-22 18:43 40.88927 -74.30098 15020 ft 202 kts 244°
2026-04-22 18:44 40.88206 -74.31698 15511 ft 200 kts 247°
2026-04-22 18:44 40.87503 -74.33257 15969 ft 201 kts 247°
2026-04-22 18:44 40.86783 -74.34866 16429 ft 206 kts 247°
2026-04-22 18:44 40.86055 -74.36488 16979 ft 204 kts 247°
2026-04-22 18:45 40.85329 -74.38104 17470 ft 205 kts 247°
2026-04-22 18:45 40.84599 -74.39730 17948 ft 205 kts 247°
2026-04-22 18:45 40.83867 -74.41358 18422 ft 206 kts 247°
2026-04-22 18:45 40.83132 -74.42992 18877 ft 208 kts 247°
2026-04-22 18:46 40.82400 -74.44619 19315 ft 209 kts 247°
2026-04-22 18:46 40.81651 -74.46284 19746 ft 211 kts 247°
2026-04-22 18:46 40.80901 -74.47951 20171 ft 212 kts 247°
2026-04-22 18:46 40.80141 -74.49637 20581 ft 214 kts 246°
2026-04-22 18:47 40.79376 -74.51333 20984 ft 216 kts 246°
2026-04-22 18:47 40.78611 -74.53022 21382 ft 217 kts 248°
2026-04-22 18:47 40.77835 -74.54739 21771 ft 217 kts 248°
2026-04-22 18:47 40.77052 -74.56478 21968 ft 224 kts 248°
2026-04-22 18:48 40.76254 -74.58260 22076 ft 233 kts 248°
2026-04-22 18:48 40.75415 -74.60139 22135 ft 243 kts 247°
2026-04-22 18:48 40.74538 -74.62099 22129 ft 252 kts 247°
2026-04-22 18:48 40.73633 -74.64114 22120 ft 259 kts 246°
2026-04-22 18:49 40.72699 -74.66185 22114 ft 263 kts 246°
2026-04-22 18:49 40.71765 -74.68249 22110 ft 266 kts 246°
2026-04-22 18:49 40.70811 -74.70352 22108 ft 269 kts 246°
2026-04-22 18:49 40.69847 -74.72473 22106 ft 270 kts 246°
2026-04-22 18:50 40.68874 -74.74610 22104 ft 271 kts 246°
2026-04-22 18:50 40.67897 -74.76754 22102 ft 272 kts 246°
2026-04-22 18:50 40.66933 -74.78863 22101 ft 273 kts 246°
2026-04-22 18:50 40.65955 -74.81005 22101 ft 273 kts 246°
2026-04-22 18:51 40.64976 -74.83147 22101 ft 273 kts 246°
2026-04-22 18:51 40.63991 -74.85302 22101 ft 273 kts 246°
2026-04-22 18:51 40.63006 -74.87455 22102 ft 273 kts 246°
2026-04-22 18:51 40.62038 -74.89573 22102 ft 273 kts 246°
2026-04-22 18:52 40.61056 -74.91718 22101 ft 273 kts 246°
2026-04-22 18:52 40.60067 -74.93879 22101 ft 274 kts 246°
2026-04-22 18:52 40.59083 -74.96025 22101 ft 274 kts 246°
2026-04-22 18:52 40.58111 -74.98147 22101 ft 274 kts 246°
2026-04-22 18:53 40.57128 -75.00288 22101 ft 274 kts 246°
2026-04-22 18:53 40.56114 -75.02421 22101 ft 276 kts 243°
2026-04-22 18:53 40.54978 -75.04467 22101 ft 278 kts 239°
2026-04-22 18:53 40.53767 -75.06471 22101 ft 279 kts 238°
2026-04-22 18:54 40.52546 -75.08417 22101 ft 279 kts 237°
2026-04-22 18:54 40.51300 -75.10378 22101 ft 279 kts 237°